Time,TemperatureF,DewpointF,PressureIn,WindDirection,WindDirectionDegrees,WindSpeedMPH,WindSpeedGustMPH,Humidity,HourlyPrecipIn,Conditions,Clouds,dailyrainin,SolarRadiationWatts/m^2,SoftwareType,DateUTC
2013-01-27 00:00:00,45.2,35.5,29.91,SW,214,6.0,-999.0,73,-99.99,,,0.44,0.0,cwc,2013-01-27 07:00:00,
2013-01-27 00:05:00,45.4,35.7,29.91,SW,215,10.0,-999.0,73,-99.99,,,0.00,0.0,cwc,2013-01-27 07:05:00,
2013-01-27 00:15:00,45.5,35.8,29.91,SSW,202,7.0,-999.0,73,-99.99,,,0.00,0.0,cwc,2013-01-27 07:15:00,
2013-01-27 00:20:00,45.4,35.7,29.90,SSW,196,7.0,-999.0,73,-99.99,,,0.00,0.0,cwc,2013-01-27 07:20:00,
2013-01-27 00:25:00,45.3,35.9,29.90,SW,226,2.0,-999.0,74,-99.99,,,0.00,0.0,cwc,2013-01-27 07:25:00,
2013-01-27 00:30:00,45.4,35.7,29.90,SW,224,7.0,-999.0,73,-99.99,,,0.00,0.0,cwc,2013-01-27 07:30:00,
2013-01-27 00:35:00,45.5,35.4,29.90,SW,218,5.0,-999.0,72,-99.99,,,0.00,0.0,cwc,2013-01-27 07:35:00,
2013-01-27 00:40:00,45.6,35.5,29.90,WSW,238,3.0,-999.0,72,-99.99,,,0.00,0.0,cwc,2013-01-27 07:40:00,
2013-01-27 00:45:00,45.7,35.6,29.90,SW,234,10.0,-999.0,72,-99.99,,,0.00,0.0,cwc,2013-01-27 07:45:00,
2013-01-27 00:50:00,45.7,35.6,29.90,SSW,202,5.0,-999.0,72,-99.99,,,0.00,0.0,cwc,2013-01-27 07:50:00,
2013-01-27 00:55:00,45.5,35.4,29.90,WSW,248,7.0,-999.0,72,-99.99,,,0.00,0.0,cwc,2013-01-27 07:55:00,
2013-01-27 01:00:00,45.5,35.4,29.90,WSW,238,7.0,-999.0,72,-99.99,,,0.00,0.0,cwc,2013-01-27 08:00:00,
2013-01-27 01:05:00,45.4,35.3,29.90,WSW,242,4.0,-999.0,72,-99.99,,,0.00,0.0,cwc,2013-01-27 08:05:00,
2013-01-27 01:10:00,45.4,35.0,29.89,WSW,248,7.0,-999.0,71,-99.99,,,0.00,0.0,cwc,2013-01-27 08:10:00,
2013-01-27 01:15:00,45.5,35.1,29.89,SW,232,5.0,-999.0,71,-99.99,,,0.00,0.0,cwc,2013-01-27 08:15:00,
2013-01-27 01:20:00,45.5,35.1,29.89,SW,227,4.0,-999.0,71,-99.99,,,0.00,0.0,cwc,2013-01-27 08:20:00,
2013-01-27 01:25:00,45.6,35.2,29.89,SW,230,7.0,-999.0,71,-99.99,,,0.00,0.0,cwc,2013-01-27 08:25:00,
2013-01-27 01:30:00,45.6,35.2,29.89,SW,229,13.0,-999.0,71,-99.99,,,0.00,0.0,cwc,2013-01-27 08:30:00,
2013-01-27 01:35:00,45.6,34.8,29.88,SW,229,7.0,-999.0,70,-99.99,,,0.00,0.0,cwc,2013-01-27 08:35:00,
2013-01-27 01:40:00,45.6,34.8,29.89,WSW,243,6.0,-999.0,70,-99.99,,,0.00,0.0,cwc,2013-01-27 08:40:00,
2013-01-27 01:45:00,45.7,34.9,29.89,SW,215,6.0,-999.0,70,-99.99,,,0.00,0.0,cwc,2013-01-27 08:45:00,
2013-01-27 01:50:00,45.7,34.9,29.88,West,267,7.0,-999.0,70,-99.99,,,0.00,0.0,cwc,2013-01-27 08:50:00,
2013-01-27 02:00:00,45.6,34.8,29.88,WSW,253,7.0,-999.0,70,-99.99,,,0.00,0.0,cwc,2013-01-27 09:00:00,
2013-01-27 02:05:00,45.6,34.8,29.88,SW,236,7.0,-999.0,70,-99.99,,,0.00,0.0,cwc,2013-01-27 09:05:00,
2013-01-27 02:10:00,45.5,34.7,29.88,SW,218,7.0,-999.0,70,-99.99,,,0.00,0.0,cwc,2013-01-27 09:10:00,
2013-01-27 02:15:00,45.4,35.0,29.87,WSW,241,5.0,-999.0,71,-99.99,,,0.00,0.0,cwc,2013-01-27 09:15:00,
2013-01-27 02:20:00,45.2,34.8,29.87,West,273,8.0,-999.0,71,-99.99,,,0.00,0.0,cwc,2013-01-27 09:20:00,
2013-01-27 02:25:00,45.3,34.5,29.87,WSW,240,10.0,-999.0,70,-99.99,,,0.00,0.0,cwc,2013-01-27 09:25:00,
2013-01-27 02:30:00,45.4,34.6,29.87,SW,215,14.0,-999.0,70,-99.99,,,0.00,0.0,cwc,2013-01-27 09:30:00,
2013-01-27 02:35:00,45.4,34.6,29.88,SW,230,5.0,-999.0,70,-99.99,,,0.00,0.0,cwc,2013-01-27 09:35:00,
2013-01-27 02:40:00,45.2,34.8,29.88,SW,224,7.0,-999.0,71,-99.99,,,0.00,0.0,cwc,2013-01-27 09:40:00,
2013-01-27 02:45:00,44.9,34.8,29.87,SW,222,5.0,-999.0,72,-99.99,,,0.00,0.0,cwc,2013-01-27 09:45:00,
2013-01-27 02:50:00,44.6,34.9,29.87,WSW,237,9.0,-999.0,73,-99.99,,,0.00,0.0,cwc,2013-01-27 09:50:00,
2013-01-27 02:55:00,44.5,34.8,29.87,SW,221,6.0,-999.0,73,-99.99,,,0.00,0.0,cwc,2013-01-27 09:55:00,
2013-01-27 03:00:00,44.4,34.7,29.87,WSW,252,5.0,-999.0,73,-99.99,,,0.00,0.0,cwc,2013-01-27 10:00:00,
2013-01-27 03:05:00,44.3,34.6,29.87,WSW,257,4.0,-999.0,73,-99.99,,,0.00,0.0,cwc,2013-01-27 10:05:00,
2013-01-27 03:10:00,44.3,34.6,29.87,SW,229,5.0,-999.0,73,-99.99,,,0.00,0.0,cwc,2013-01-27 10:10:00,
2013-01-27 03:15:00,44.3,34.6,29.87,SSW,213,9.0,-999.0,73,-99.99,,,0.00,0.0,cwc,2013-01-27 10:15:00,
2013-01-27 03:25:00,44.3,34.6,29.86,SW,227,3.0,-999.0,73,-99.99,,,0.00,0.0,cwc,2013-01-27 10:25:00,
2013-01-27 03:30:00,44.3,34.6,29.86,WSW,242,7.0,-999.0,73,-99.99,,,0.00,0.0,cwc,2013-01-27 10:30:00,
2013-01-27 03:35:00,44.4,34.7,29.86,SSW,211,8.0,-999.0,73,-99.99,,,0.00,0.0,cwc,2013-01-27 10:35:00,
2013-01-27 03:40:00,44.5,34.8,29.86,SW,227,5.0,-999.0,73,-99.99,,,0.00,0.0,cwc,2013-01-27 10:40:00,
2013-01-27 03:45:00,44.5,34.8,29.86,SW,222,10.0,-999.0,73,-99.99,,,0.00,0.0,cwc,2013-01-27 10:45:00,
2013-01-27 03:50:00,44.5,34.4,29.85,SW,229,7.0,-999.0,72,-99.99,,,0.00,0.0,cwc,2013-01-27 10:50:00,
2013-01-27 03:55:00,44.5,34.8,29.85,WSW,242,7.0,-999.0,73,-99.99,,,0.00,0.0,cwc,2013-01-27 10:55:00,
2013-01-27 04:00:00,44.4,34.7,29.85,WSW,245,7.0,-999.0,73,-99.99,,,0.00,0.0,cwc,2013-01-27 11:00:00,
2013-01-27 04:05:00,44.3,34.6,29.85,SSW,213,7.0,-999.0,73,-99.99,,,0.00,0.0,cwc,2013-01-27 11:05:00,
2013-01-27 04:10:00,44.2,34.8,29.85,West,275,7.0,-999.0,74,-99.99,,,0.00,0.0,cwc,2013-01-27 11:10:00,
2013-01-27 04:15:00,44.1,34.7,29.85,West,278,4.0,-999.0,74,-99.99,,,0.00,0.0,cwc,2013-01-27 11:15:00,
2013-01-27 04:20:00,44.0,34.6,29.85,West,259,6.0,-999.0,74,-99.99,,,0.00,0.0,cwc,2013-01-27 11:20:00,
2013-01-27 04:25:00,44.0,34.6,29.85,SW,215,4.0,-999.0,74,-99.99,,,0.00,0.0,cwc,2013-01-27 11:25:00,
2013-01-27 04:30:00,43.8,34.4,29.85,SW,234,4.0,-999.0,74,-99.99,,,0.00,0.0,cwc,2013-01-27 11:30:00,
2013-01-27 04:35:00,43.8,34.4,29.85,WSW,246,8.0,-999.0,74,-99.99,,,0.00,0.0,cwc,2013-01-27 11:35:00,
2013-01-27 04:40:00,43.9,34.5,29.84,WSW,237,4.0,-999.0,74,-99.99,,,0.00,0.0,cwc,2013-01-27 11:40:00,
2013-01-27 04:45:00,43.8,34.8,29.85,WSW,237,7.0,-999.0,75,-99.99,,,0.00,0.0,cwc,2013-01-27 11:45:00,
2013-01-27 04:50:00,43.8,34.4,29.85,WSW,241,5.0,-999.0,74,-99.99,,,0.00,0.0,cwc,2013-01-27 11:50:00,
2013-01-27 04:55:00,43.8,34.8,29.85,West,261,7.0,-999.0,75,-99.99,,,0.00,0.0,cwc,2013-01-27 11:55:00,
2013-01-27 05:00:00,43.8,34.8,29.85,West,260,4.0,-999.0,75,-99.99,,,0.00,0.0,cwc,2013-01-27 12:00:00,
2013-01-27 05:05:00,43.7,34.7,29.84,WSW,252,3.0,-999.0,75,-99.99,,,0.00,0.0,cwc,2013-01-27 12:05:00,
2013-01-27 05:10:00,43.6,34.6,29.84,SW,219,0.0,-999.0,75,-99.99,,,0.00,0.0,cwc,2013-01-27 12:10:00,
2013-01-27 05:15:00,43.4,34.4,29.84,West,261,3.0,-999.0,75,-99.99,,,0.00,0.0,cwc,2013-01-27 12:15:00,
2013-01-27 05:20:00,43.4,34.8,29.84,WSW,244,3.0,-999.0,76,-99.99,,,0.00,0.0,cwc,2013-01-27 12:20:00,
2013-01-27 05:25:00,43.4,34.8,29.85,WSW,255,3.0,-999.0,76,-99.99,,,0.00,0.0,cwc,2013-01-27 12:25:00,
2013-01-27 05:30:00,43.4,34.8,29.84,West,269,4.0,-999.0,76,-99.99,,,0.00,0.0,cwc,2013-01-27 12:30:00,
2013-01-27 05:35:00,43.5,34.5,29.84,South,184,17.0,-999.0,75,-99.99,,,0.00,0.0,cwc,2013-01-27 12:35:00,
2013-01-27 05:40:00,43.6,34.6,29.84,West,276,4.0,-999.0,75,-99.99,,,0.00,0.0,cwc,2013-01-27 12:40:00,
2013-01-27 05:45:00,43.6,34.6,29.84,West,267,8.0,-999.0,75,-99.99,,,0.00,0.0,cwc,2013-01-27 12:45:00,
2013-01-27 05:50:00,43.6,34.6,29.85,West,267,2.0,-999.0,75,-99.99,,,0.00,0.0,cwc,2013-01-27 12:50:00,
2013-01-27 05:55:00,43.4,34.4,29.84,WSW,253,5.0,-999.0,75,-99.99,,,0.00,0.0,cwc,2013-01-27 12:55:00,
2013-01-27 06:00:00,43.4,34.4,29.85,WSW,242,7.0,-999.0,75,-99.99,,,0.00,0.0,cwc,2013-01-27 13:00:00,
2013-01-27 06:05:00,43.5,34.5,29.85,SW,225,7.0,-999.0,75,-99.99,,,0.00,0.0,cwc,2013-01-27 13:05:00,
2013-01-27 06:10:00,43.6,34.6,29.85,SW,215,11.0,-999.0,75,-99.99,,,0.00,0.0,cwc,2013-01-27 13:10:00,
2013-01-27 06:15:00,43.6,34.6,29.85,SW,234,7.0,-999.0,75,-99.99,,,0.00,0.0,cwc,2013-01-27 13:15:00,
2013-01-27 06:20:00,43.7,34.7,29.85,SW,223,6.0,-999.0,75,-99.99,,,0.00,0.0,cwc,2013-01-27 13:20:00,
2013-01-27 06:30:00,43.6,34.6,29.85,SW,223,4.0,-999.0,75,-99.99,,,0.00,0.0,cwc,2013-01-27 13:30:00,
2013-01-27 06:35:00,43.5,34.5,29.85,WSW,252,3.0,-999.0,75,-99.99,,,0.00,0.0,cwc,2013-01-27 13:35:00,
2013-01-27 06:40:00,43.4,34.4,29.85,West,267,1.0,-999.0,75,-99.99,,,0.00,0.0,cwc,2013-01-27 13:40:00,
2013-01-27 06:45:00,43.4,34.8,29.85,West,263,5.0,-999.0,76,-99.99,,,0.00,0.0,cwc,2013-01-27 13:45:00,
2013-01-27 06:55:00,43.3,34.3,29.85,WSW,256,4.0,-999.0,75,-99.99,,,0.00,0.0,cwc,2013-01-27 13:55:00,
2013-01-27 07:00:00,43.3,34.7,29.85,SW,232,5.0,-999.0,76,-99.99,,,0.00,0.0,cwc,2013-01-27 14:00:00,
2013-01-27 07:05:00,43.2,34.6,29.85,SW,227,3.0,-999.0,76,-99.99,,,0.00,0.0,cwc,2013-01-27 14:05:00,
2013-01-27 07:10:00,43.0,34.4,29.85,SW,226,5.0,-999.0,76,-99.99,,,0.00,0.0,cwc,2013-01-27 14:10:00,
2013-01-27 07:15:00,42.9,34.6,29.86,SW,227,4.0,-999.0,77,-99.99,,,0.00,0.0,cwc,2013-01-27 14:15:00,
2013-01-27 07:20:00,42.9,34.6,29.86,SW,236,1.0,-999.0,77,-99.99,,,0.00,0.0,cwc,2013-01-27 14:20:00,
2013-01-27 07:25:00,42.9,34.3,29.86,SW,227,3.0,-999.0,76,-99.99,,,0.00,5.0,cwc,2013-01-27 14:25:00,
2013-01-27 07:30:00,43.0,34.4,29.86,SW,225,2.0,-999.0,76,-99.99,,,0.00,7.0,cwc,2013-01-27 14:30:00,
2013-01-27 07:35:00,42.9,34.3,29.86,SW,225,5.0,-999.0,76,-99.99,,,0.00,16.0,cwc,2013-01-27 14:35:00,
2013-01-27 07:40:00,42.9,34.6,29.86,SW,225,4.0,-999.0,77,-99.99,,,0.00,14.0,cwc,2013-01-27 14:40:00,
2013-01-27 07:45:00,42.7,34.4,29.86,SW,225,6.0,-999.0,77,-99.99,,,0.00,21.0,cwc,2013-01-27 14:45:00,
2013-01-27 07:50:00,42.7,34.4,29.86,SW,226,1.0,-999.0,77,-99.99,,,0.00,16.0,cwc,2013-01-27 14:50:00,
2013-01-27 07:55:00,42.7,34.4,29.86,SW,227,1.0,-999.0,77,-99.99,,,0.00,16.0,cwc,2013-01-27 14:55:00,
2013-01-27 08:00:00,42.7,34.4,29.86,SW,234,5.0,-999.0,77,-99.99,,,0.00,19.0,cwc,2013-01-27 15:00:00,
2013-01-27 08:05:00,42.8,34.5,29.86,WSW,242,2.0,-999.0,77,-99.99,,,0.00,28.0,cwc,2013-01-27 15:05:00,
2013-01-27 08:10:00,42.8,34.5,29.86,WSW,242,5.0,-999.0,77,-99.99,,,0.00,53.0,cwc,2013-01-27 15:10:00,
2013-01-27 08:15:00,42.8,34.5,29.86,SW,229,5.0,-999.0,77,-99.99,,,0.00,39.0,cwc,2013-01-27 15:15:00,
2013-01-27 08:20:00,42.9,34.6,29.86,WSW,246,4.0,-999.0,77,-99.99,,,0.00,63.0,cwc,2013-01-27 15:20:00,
2013-01-27 08:25:00,43.0,34.7,29.86,SW,230,1.0,-999.0,77,-99.99,,,0.00,53.0,cwc,2013-01-27 15:25:00,
2013-01-27 08:30:00,43.1,34.8,29.86,SW,231,2.0,-999.0,77,-99.99,,,0.00,107.0,cwc,2013-01-27 15:30:00,
2013-01-27 08:35:00,43.1,34.8,29.86,SW,228,5.0,-999.0,77,-99.99,,,0.00,107.0,cwc,2013-01-27 15:35:00,
2013-01-27 08:40:00,43.0,34.7,29.86,WSW,242,3.0,-999.0,77,-99.99,,,0.00,58.0,cwc,2013-01-27 15:40:00,
2013-01-27 08:45:00,42.8,34.9,29.86,SSW,205,5.0,-999.0,78,-99.99,,,0.00,88.0,cwc,2013-01-27 15:45:00,
2013-01-27 08:50:00,42.6,35.4,29.87,SW,215,2.0,-999.0,80,-99.99,,,0.00,84.0,cwc,2013-01-27 15:50:00,
2013-01-27 08:55:00,42.5,35.3,29.87,SSW,213,8.0,-999.0,80,-99.99,,,0.00,141.0,cwc,2013-01-27 15:55:00,
2013-01-27 09:00:00,42.5,35.3,29.87,SSW,213,1.0,-999.0,80,-99.99,,,0.00,77.0,cwc,2013-01-27 16:00:00,
2013-01-27 09:05:00,42.4,35.2,29.87,SW,221,5.0,-999.0,80,-99.99,,,0.00,98.0,cwc,2013-01-27 16:05:00,
2013-01-27 09:10:00,42.5,35.7,29.87,SW,221,4.0,-999.0,81,-99.99,,,0.00,158.0,cwc,2013-01-27 16:10:00,
2013-01-27 09:15:00,42.6,35.4,29.87,SW,236,6.0,-999.0,80,-99.99,,,0.01,139.0,cwc,2013-01-27 16:15:00,
2013-01-27 09:20:00,42.8,35.6,29.87,SW,222,4.0,-999.0,80,-99.99,,,0.01,186.0,cwc,2013-01-27 16:20:00,
2013-01-27 09:25:00,42.9,35.3,29.87,SW,223,5.0,-999.0,79,-99.99,,,0.01,90.0,cwc,2013-01-27 16:25:00,
2013-01-27 09:30:00,43.1,35.5,29.87,SW,220,7.0,-999.0,79,-99.99,,,0.01,118.0,cwc,2013-01-27 16:30:00,
2013-01-27 09:40:00,43.4,36.2,29.87,WSW,250,2.0,-999.0,80,-99.99,,,0.01,459.0,cwc,2013-01-27 16:40:00,
2013-01-27 09:45:00,43.9,36.7,29.87,SSW,207,1.0,-999.0,80,-99.99,,,0.01,425.0,cwc,2013-01-27 16:45:00,
2013-01-27 09:50:00,44.2,36.3,29.87,SSW,209,4.0,-999.0,78,-99.99,,,0.01,445.0,cwc,2013-01-27 16:50:00,
2013-01-27 09:55:00,44.5,36.2,29.87,SSW,210,3.0,-999.0,77,-99.99,,,0.01,536.0,cwc,2013-01-27 16:55:00,
2013-01-27 10:00:00,44.8,36.9,29.87,SSW,209,0.0,-999.0,78,-99.99,,,0.01,158.0,cwc,2013-01-27 17:00:00,
2013-01-27 10:05:00,45.2,36.6,29.87,SSW,211,3.0,-999.0,76,-99.99,,,0.01,104.0,cwc,2013-01-27 17:05:00,
2013-01-27 10:10:00,45.4,36.4,29.87,SSW,210,4.0,-999.0,75,-99.99,,,0.01,151.0,cwc,2013-01-27 17:10:00,
2013-01-27 10:15:00,45.6,36.2,29.88,SSW,210,2.0,-999.0,74,-99.99,,,0.01,309.0,cwc,2013-01-27 17:15:00,
2013-01-27 10:20:00,45.9,36.9,29.88,SSW,211,1.0,-999.0,75,-99.99,,,0.01,255.0,cwc,2013-01-27 17:20:00,
2013-01-27 10:25:00,46.1,35.7,29.88,SSW,211,2.0,-999.0,71,-99.99,,,0.01,100.0,cwc,2013-01-27 17:25:00,
2013-01-27 10:30:00,46.1,36.0,29.88,SSW,213,3.0,-999.0,72,-99.99,,,0.01,220.0,cwc,2013-01-27 17:30:00,
2013-01-27 10:35:00,46.0,35.6,29.87,SSW,210,2.0,-999.0,71,-99.99,,,0.01,116.0,cwc,2013-01-27 17:35:00,
2013-01-27 10:45:00,46.8,37.1,29.88,SW,221,8.0,-999.0,73,-99.99,,,0.01,638.0,cwc,2013-01-27 17:45:00,
2013-01-27 10:50:00,47.2,36.4,29.87,SSW,213,5.0,-999.0,70,-99.99,,,0.01,735.0,cwc,2013-01-27 17:50:00,
2013-01-27 10:55:00,47.7,36.9,29.87,SSW,196,6.0,-999.0,70,-99.99,,,0.01,332.0,cwc,2013-01-27 17:55:00,
2013-01-27 11:00:00,48.2,37.0,29.87,South,188,3.0,-999.0,69,-99.99,,,0.01,856.0,cwc,2013-01-27 18:00:00,
2013-01-27 11:05:00,48.2,36.3,29.87,SSW,210,3.0,-999.0,67,-99.99,,,0.01,123.0,cwc,2013-01-27 18:05:00,
2013-01-27 11:10:00,48.1,36.9,29.87,SSW,210,3.0,-999.0,69,-99.99,,,0.01,111.0,cwc,2013-01-27 18:10:00,
2013-01-27 11:15:00,47.9,36.0,29.87,SW,219,3.0,-999.0,67,-99.99,,,0.01,113.0,cwc,2013-01-27 18:15:00,
2013-01-27 11:20:00,47.9,35.7,29.87,SW,218,5.0,-999.0,66,-99.99,,,0.01,237.0,cwc,2013-01-27 18:20:00,
2013-01-27 11:25:00,48.0,35.4,29.87,SSW,213,7.0,-999.0,65,-99.99,,,0.01,265.0,cwc,2013-01-27 18:25:00,
2013-01-27 11:30:00,48.2,35.6,29.87,SSW,213,4.0,-999.0,65,-99.99,,,0.01,183.0,cwc,2013-01-27 18:30:00,
2013-01-27 11:35:00,48.4,36.2,29.86,SW,217,11.0,-999.0,66,-99.99,,,0.01,227.0,cwc,2013-01-27 18:35:00,
2013-01-27 11:40:00,48.4,35.1,29.86,SW,215,6.0,-999.0,63,-99.99,,,0.01,816.0,cwc,2013-01-27 18:40:00,
2013-01-27 11:45:00,48.9,35.6,29.86,SSW,196,4.0,-999.0,63,-99.99,,,0.01,775.0,cwc,2013-01-27 18:45:00,
2013-01-27 11:50:00,49.7,35.3,29.85,SSW,200,7.0,-999.0,60,-99.99,,,0.01,833.0,cwc,2013-01-27 18:50:00,
2013-01-27 11:55:00,49.8,36.1,29.85,SW,232,6.0,-999.0,62,-99.99,,,0.01,844.0,cwc,2013-01-27 18:55:00,
2013-01-27 12:00:00,50.1,35.0,29.85,SSE,168,3.0,-999.0,58,-99.99,,,0.01,360.0,cwc,2013-01-27 19:00:00,
2013-01-27 12:05:00,50.3,35.5,29.84,South,190,5.0,-999.0,59,-99.99,,,0.01,360.0,cwc,2013-01-27 19:05:00,
2013-01-27 12:10:00,50.2,35.1,29.84,SW,214,6.0,-999.0,58,-99.99,,,0.01,176.0,cwc,2013-01-27 19:10:00,
2013-01-27 12:15:00,49.9,34.8,29.84,WSW,245,2.0,-999.0,58,-99.99,,,0.01,144.0,cwc,2013-01-27 19:15:00,
2013-01-27 12:20:00,49.6,34.8,29.83,SSW,199,5.0,-999.0,59,-99.99,,,0.01,93.0,cwc,2013-01-27 19:20:00,
2013-01-27 12:25:00,49.4,35.4,29.83,West,274,1.0,-999.0,61,-99.99,,,0.01,77.0,cwc,2013-01-27 19:25:00,
2013-01-27 12:30:00,49.2,35.2,29.83,West,277,5.0,-999.0,61,-99.99,,,0.01,72.0,cwc,2013-01-27 19:30:00,
2013-01-27 12:40:00,48.7,35.0,29.83,SW,219,4.0,-999.0,62,-99.99,,,0.01,70.0,cwc,2013-01-27 19:40:00,
2013-01-27 12:45:00,48.7,35.0,29.83,WSW,240,5.0,-999.0,62,-99.99,,,0.01,693.0,cwc,2013-01-27 19:45:00,
2013-01-27 12:50:00,49.4,35.4,29.82,WSW,241,3.0,-999.0,61,-99.99,,,0.01,659.0,cwc,2013-01-27 19:50:00,
2013-01-27 12:55:00,50.0,35.6,29.82,SSW,208,7.0,-999.0,60,-99.99,,,0.01,223.0,cwc,2013-01-27 19:55:00,
2013-01-27 13:00:00,50.2,35.8,29.82,SSW,198,5.0,-999.0,60,-99.99,,,0.01,397.0,cwc,2013-01-27 20:00:00,
2013-01-27 13:05:00,50.6,35.1,29.81,SW,217,6.0,-999.0,57,-99.99,,,0.01,675.0,cwc,2013-01-27 20:05:00,
2013-01-27 13:10:00,51.1,35.6,29.81,SSW,196,9.0,-999.0,57,-99.99,,,0.01,656.0,cwc,2013-01-27 20:10:00,
2013-01-27 13:15:00,51.5,35.7,29.81,SW,217,7.0,-999.0,56,-99.99,,,0.01,656.0,cwc,2013-01-27 20:15:00,
2013-01-27 13:25:00,52.4,36.2,29.81,South,181,0.0,-999.0,55,-99.99,,,0.01,687.0,cwc,2013-01-27 20:25:00,
2013-01-27 13:30:00,52.8,36.2,29.80,SSW,208,7.0,-999.0,54,-99.99,,,0.01,186.0,cwc,2013-01-27 20:30:00,
2013-01-27 13:35:00,51.8,35.2,29.81,SW,219,6.0,-999.0,54,-99.99,,,0.01,121.0,cwc,2013-01-27 20:35:00,
2013-01-27 13:40:00,51.0,34.8,29.81,SSW,198,4.0,-999.0,55,-99.99,,,0.01,116.0,cwc,2013-01-27 20:40:00,
2013-01-27 13:45:00,50.4,34.9,29.81,SSW,199,5.0,-999.0,57,-99.99,,,0.01,104.0,cwc,2013-01-27 20:45:00,
2013-01-27 13:55:00,49.9,35.1,29.81,SSW,203,4.0,-999.0,59,-99.99,,,0.01,151.0,cwc,2013-01-27 20:55:00,
2013-01-27 14:00:00,49.9,34.8,29.81,SSW,202,3.0,-999.0,58,-99.99,,,0.01,146.0,cwc,2013-01-27 21:00:00,
2013-01-27 14:05:00,50.0,34.9,29.81,SSW,202,0.0,-999.0,58,-99.99,,,0.01,111.0,cwc,2013-01-27 21:05:00,
2013-01-27 14:10:00,50.0,34.9,29.80,NNE,27,4.0,-999.0,58,-99.99,,,0.01,100.0,cwc,2013-01-27 21:10:00,
2013-01-27 14:15:00,50.1,35.0,29.81,North,5,1.0,-999.0,58,-99.99,,,0.01,257.0,cwc,2013-01-27 21:15:00,
2013-01-27 14:20:00,50.7,35.6,29.80,North,360,0.0,-999.0,58,-99.99,,,0.01,643.0,cwc,2013-01-27 21:20:00,
2013-01-27 14:25:00,52.2,36.0,29.80,SW,216,7.0,-999.0,55,-99.99,,,0.01,622.0,cwc,2013-01-27 21:25:00,
2013-01-27 14:30:00,52.7,35.8,29.80,SSW,207,6.0,-999.0,53,-99.99,,,0.01,209.0,cwc,2013-01-27 21:30:00,
2013-01-27 14:40:00,51.6,34.0,29.80,SW,221,9.0,-999.0,51,-99.99,,,0.01,130.0,cwc,2013-01-27 21:40:00,
2013-01-27 14:45:00,51.1,34.2,29.80,WSW,237,4.0,-999.0,53,-99.99,,,0.01,118.0,cwc,2013-01-27 21:45:00,
2013-01-27 14:50:00,50.9,34.3,29.80,South,188,4.0,-999.0,54,-99.99,,,0.01,116.0,cwc,2013-01-27 21:50:00,
2013-01-27 14:55:00,50.7,33.8,29.80,SSW,213,7.0,-999.0,53,-99.99,,,0.01,107.0,cwc,2013-01-27 21:55:00,
2013-01-27 15:00:00,50.5,34.3,29.80,SW,214,6.0,-999.0,55,-99.99,,,0.01,120.0,cwc,2013-01-27 22:00:00,
2013-01-27 15:10:00,50.5,33.9,29.80,SW,219,7.0,-999.0,54,-99.99,,,0.01,156.0,cwc,2013-01-27 22:10:00,
2013-01-27 15:20:00,50.7,33.8,29.79,SW,214,4.0,-999.0,53,-99.99,,,0.01,128.0,cwc,2013-01-27 22:20:00,
2013-01-27 15:25:00,50.7,34.1,29.80,SW,214,4.0,-999.0,54,-99.99,,,0.01,102.0,cwc,2013-01-27 22:25:00,
2013-01-27 15:30:00,50.8,33.9,29.80,SW,214,4.0,-999.0,53,-99.99,,,0.01,153.0,cwc,2013-01-27 22:30:00,
2013-01-27 15:40:00,51.0,34.1,29.79,SW,217,3.0,-999.0,53,-99.99,,,0.01,65.0,cwc,2013-01-27 22:40:00,
2013-01-27 15:45:00,50.8,33.9,29.79,SW,216,3.0,-999.0,53,-99.99,,,0.01,53.0,cwc,2013-01-27 22:45:00,
2013-01-27 15:50:00,50.6,34.0,29.79,SW,215,7.0,-999.0,54,-99.99,,,0.01,90.0,cwc,2013-01-27 22:50:00,
2013-01-27 15:55:00,50.6,34.0,29.79,SW,215,2.0,-999.0,54,-99.99,,,0.01,62.0,cwc,2013-01-27 22:55:00,
2013-01-27 16:00:00,50.5,33.6,29.80,SW,215,2.0,-999.0,53,-99.99,,,0.01,67.0,cwc,2013-01-27 23:00:00,
2013-01-27 16:05:00,50.3,34.1,29.79,SW,215,3.0,-999.0,55,-99.99,,,0.01,76.0,cwc,2013-01-27 23:05:00,
2013-01-27 16:10:00,50.2,34.0,29.79,SW,216,4.0,-999.0,55,-99.99,,,0.01,70.0,cwc,2013-01-27 23:10:00,
2013-01-27 16:15:00,50.2,33.6,29.79,SW,215,4.0,-999.0,54,-99.99,,,0.01,74.0,cwc,2013-01-27 23:15:00,
2013-01-27 16:25:00,50.2,33.6,29.79,SW,216,1.0,-999.0,54,-99.99,,,0.01,49.0,cwc,2013-01-27 23:25:00,
2013-01-27 16:30:00,50.2,33.6,29.79,SW,215,3.0,-999.0,54,-99.99,,,0.01,42.0,cwc,2013-01-27 23:30:00,
2013-01-27 16:35:00,50.2,34.0,29.79,SW,219,0.0,-999.0,55,-99.99,,,0.01,33.0,cwc,2013-01-27 23:35:00,
2013-01-27 16:40:00,50.2,33.3,29.79,SW,225,4.0,-999.0,53,-99.99,,,0.01,28.0,cwc,2013-01-27 23:40:00,
2013-01-27 16:45:00,50.2,32.9,29.79,WSW,257,3.0,-999.0,52,-99.99,,,0.01,32.0,cwc,2013-01-27 23:45:00,
2013-01-27 16:50:00,50.2,33.3,29.79,SW,225,3.0,-999.0,53,-99.99,,,0.01,39.0,cwc,2013-01-27 23:50:00,
2013-01-27 16:55:00,50.1,33.2,29.79,SW,233,5.0,-999.0,53,-99.99,,,0.01,30.0,cwc,2013-01-27 23:55:00,
2013-01-27 17:00:00,50.0,33.1,29.80,SW,223,5.0,-999.0,53,-99.99,,,0.01,19.0,cwc,2013-01-28 00:00:00,
2013-01-27 17:05:00,49.8,32.9,29.80,WSW,251,4.0,-999.0,53,-99.99,,,0.01,21.0,cwc,2013-01-28 00:05:00,
2013-01-27 17:10:00,49.6,33.0,29.79,SW,225,2.0,-999.0,54,-99.99,,,0.01,25.0,cwc,2013-01-28 00:10:00,
2013-01-27 17:15:00,49.4,32.8,29.80,SW,225,1.0,-999.0,54,-99.99,,,0.01,16.0,cwc,2013-01-28 00:15:00,
2013-01-27 17:20:00,49.2,32.3,29.80,SW,225,0.0,-999.0,53,-99.99,,,0.01,7.0,cwc,2013-01-28 00:20:00,
2013-01-27 17:25:00,49.0,32.4,29.80,SW,225,0.0,-999.0,54,-99.99,,,0.01,0.0,cwc,2013-01-28 00:25:00,
2013-01-27 17:30:00,48.7,32.1,29.80,SW,225,2.0,-999.0,54,-99.99,,,0.01,0.0,cwc,2013-01-28 00:30:00,
2013-01-27 17:35:00,48.5,31.9,29.80,SW,230,1.0,-999.0,54,-99.99,,,0.01,0.0,cwc,2013-01-28 00:35:00,
2013-01-27 17:40:00,48.2,33.4,29.80,SW,230,4.0,-999.0,59,-99.99,,,0.01,0.0,cwc,2013-01-28 00:40:00,
2013-01-27 17:45:00,47.7,32.2,29.80,SW,230,3.0,-999.0,57,-99.99,,,0.01,0.0,cwc,2013-01-28 00:45:00,
2013-01-27 17:50:00,47.3,31.8,29.80,SW,230,1.0,-999.0,57,-99.99,,,0.01,0.0,cwc,2013-01-28 00:50:00,
2013-01-27 17:55:00,46.9,32.5,29.80,SW,230,0.0,-999.0,60,-99.99,,,0.01,0.0,cwc,2013-01-28 00:55:00,
2013-01-27 18:00:00,46.4,32.4,29.80,SW,230,0.0,-999.0,61,-99.99,,,0.01,0.0,cwc,2013-01-28 01:00:00,
2013-01-27 18:10:00,44.7,31.7,29.81,SW,230,2.0,-999.0,64,-99.99,,,0.01,0.0,cwc,2013-01-28 01:10:00,
2013-01-27 18:15:00,43.9,31.7,29.81,SW,230,3.0,-999.0,66,-99.99,,,0.01,0.0,cwc,2013-01-28 01:15:00,
2013-01-27 18:20:00,42.7,31.5,29.81,SW,230,4.0,-999.0,69,-99.99,,,0.01,0.0,cwc,2013-01-28 01:20:00,
2013-01-27 18:25:00,41.6,30.8,29.81,SW,230,4.0,-999.0,70,-99.99,,,0.01,0.0,cwc,2013-01-28 01:25:00,
2013-01-27 18:30:00,41.1,31.0,29.81,SW,230,2.0,-999.0,72,-99.99,,,0.01,0.0,cwc,2013-01-28 01:30:00,
2013-01-27 18:40:00,40.2,30.8,29.82,SW,230,2.0,-999.0,74,-99.99,,,0.01,0.0,cwc,2013-01-28 01:40:00,
2013-01-27 18:45:00,39.7,30.3,29.82,SW,230,2.0,-999.0,74,-99.99,,,0.01,0.0,cwc,2013-01-28 01:45:00,
2013-01-27 18:50:00,39.3,30.3,29.82,SW,230,0.0,-999.0,75,-99.99,,,0.01,0.0,cwc,2013-01-28 01:50:00,
2013-01-27 18:55:00,38.9,30.6,29.82,SW,230,3.0,-999.0,77,-99.99,,,0.01,0.0,cwc,2013-01-28 01:55:00,
2013-01-27 19:00:00,38.9,30.6,29.82,SW,230,2.0,-999.0,77,-99.99,,,0.01,0.0,cwc,2013-01-28 02:00:00,
2013-01-27 19:05:00,38.8,30.5,29.82,SW,230,0.0,-999.0,77,-99.99,,,0.01,0.0,cwc,2013-01-28 02:05:00,
2013-01-27 19:10:00,38.7,30.4,29.82,SW,230,0.0,-999.0,77,-99.99,,,0.01,0.0,cwc,2013-01-28 02:10:00,
2013-01-27 19:15:00,38.7,30.8,29.82,SW,230,0.0,-999.0,78,-99.99,,,0.01,0.0,cwc,2013-01-28 02:15:00,
2013-01-27 19:20:00,38.8,30.5,29.82,SW,230,0.0,-999.0,77,-99.99,,,0.01,0.0,cwc,2013-01-28 02:20:00,
2013-01-27 19:25:00,38.9,30.6,29.82,SW,230,0.0,-999.0,77,-99.99,,,0.01,0.0,cwc,2013-01-28 02:25:00,
2013-01-27 19:30:00,39.2,30.9,29.82,SW,231,2.0,-999.0,77,-99.99,,,0.01,0.0,cwc,2013-01-28 02:30:00,
2013-01-27 19:35:00,39.2,30.6,29.82,SW,231,2.0,-999.0,76,-99.99,,,0.01,0.0,cwc,2013-01-28 02:35:00,
2013-01-27 19:40:00,39.3,30.7,29.82,SW,230,0.0,-999.0,76,-99.99,,,0.01,0.0,cwc,2013-01-28 02:40:00,
2013-01-27 19:45:00,39.3,31.0,29.82,SW,230,0.0,-999.0,77,-99.99,,,0.01,0.0,cwc,2013-01-28 02:45:00,
2013-01-27 19:50:00,39.3,31.0,29.82,SW,230,1.0,-999.0,77,-99.99,,,0.01,0.0,cwc,2013-01-28 02:50:00,
2013-01-27 19:55:00,39.2,30.6,29.82,SW,230,0.0,-999.0,76,-99.99,,,0.01,0.0,cwc,2013-01-28 02:55:00,
2013-01-27 20:00:00,39.3,30.7,29.82,SW,231,2.0,-999.0,76,-99.99,,,0.01,0.0,cwc,2013-01-28 03:00:00,
2013-01-27 20:05:00,39.4,30.8,29.82,SW,231,0.0,-999.0,76,-99.99,,,0.01,0.0,cwc,2013-01-28 03:05:00,
2013-01-27 20:10:00,39.4,30.8,29.82,SW,231,0.0,-999.0,76,-99.99,,,0.01,0.0,cwc,2013-01-28 03:10:00,
2013-01-27 20:15:00,39.5,30.5,29.83,SW,231,0.0,-999.0,75,-99.99,,,0.01,0.0,cwc,2013-01-28 03:15:00,
2013-01-27 20:20:00,39.5,30.9,29.82,SW,231,0.0,-999.0,76,-99.99,,,0.01,0.0,cwc,2013-01-28 03:20:00,
2013-01-27 20:25:00,39.5,30.9,29.82,SW,231,1.0,-999.0,76,-99.99,,,0.01,0.0,cwc,2013-01-28 03:25:00,
2013-01-27 20:30:00,39.4,31.1,29.82,SW,230,0.0,-999.0,77,-99.99,,,0.01,0.0,cwc,2013-01-28 03:30:00,
2013-01-27 20:35:00,39.1,30.8,29.82,SW,230,0.0,-999.0,77,-99.99,,,0.01,0.0,cwc,2013-01-28 03:35:00,
2013-01-27 20:40:00,38.9,31.0,29.82,SW,230,0.0,-999.0,78,-99.99,,,0.01,0.0,cwc,2013-01-28 03:40:00,
2013-01-27 20:45:00,38.5,30.9,29.82,SW,231,0.0,-999.0,79,-99.99,,,0.01,0.0,cwc,2013-01-28 03:45:00,
2013-01-27 20:55:00,38.6,30.3,29.82,SW,230,1.0,-999.0,77,-99.99,,,0.01,0.0,cwc,2013-01-28 03:55:00,
2013-01-27 21:00:00,38.1,30.2,29.82,SW,232,4.0,-999.0,78,-99.99,,,0.01,0.0,cwc,2013-01-28 04:00:00,
2013-01-27 21:05:00,37.5,29.9,29.82,SW,230,3.0,-999.0,79,-99.99,,,0.01,0.0,cwc,2013-01-28 04:05:00,
2013-01-27 21:10:00,36.8,29.6,29.82,SW,230,5.0,-999.0,80,-99.99,,,0.01,0.0,cwc,2013-01-28 04:10:00,
2013-01-27 21:15:00,36.1,29.6,29.82,SW,231,4.0,-999.0,82,-99.99,,,0.01,0.0,cwc,2013-01-28 04:15:00,
2013-01-27 21:20:00,35.9,30.1,29.81,SW,231,0.0,-999.0,84,-99.99,,,0.01,0.0,cwc,2013-01-28 04:20:00,
2013-01-27 21:25:00,35.8,29.7,29.81,SW,231,0.0,-999.0,83,-99.99,,,0.01,0.0,cwc,2013-01-28 04:25:00,
2013-01-27 21:30:00,35.7,29.9,29.81,SW,230,0.0,-999.0,84,-99.99,,,0.01,0.0,cwc,2013-01-28 04:30:00,
2013-01-27 21:40:00,35.6,29.8,29.82,SW,231,2.0,-999.0,84,-99.99,,,0.01,0.0,cwc,2013-01-28 04:40:00,
2013-01-27 21:45:00,35.6,29.8,29.82,SW,231,0.0,-999.0,84,-99.99,,,0.01,0.0,cwc,2013-01-28 04:45:00,
2013-01-27 21:50:00,35.6,29.8,29.81,SW,231,0.0,-999.0,84,-99.99,,,0.01,0.0,cwc,2013-01-28 04:50:00,
2013-01-27 21:55:00,35.3,29.2,29.81,SW,231,0.0,-999.0,83,-99.99,,,0.01,0.0,cwc,2013-01-28 04:55:00,
2013-01-27 22:05:00,34.7,29.3,29.81,SW,230,2.0,-999.0,85,-99.99,,,0.01,0.0,cwc,2013-01-28 05:05:00,
2013-01-27 22:10:00,34.8,29.8,29.81,SW,231,2.0,-999.0,86,-99.99,,,0.01,0.0,cwc,2013-01-28 05:10:00,
2013-01-27 22:20:00,35.1,29.7,29.82,SW,231,3.0,-999.0,85,-99.99,,,0.01,0.0,cwc,2013-01-28 05:20:00,
2013-01-27 22:25:00,35.2,30.2,29.82,SW,230,3.0,-999.0,86,-99.99,,,0.01,0.0,cwc,2013-01-28 05:25:00,
2013-01-27 22:30:00,35.8,31.1,29.83,SW,231,4.0,-999.0,87,-99.99,,,0.01,0.0,cwc,2013-01-28 05:30:00,
2013-01-27 22:35:00,36.4,31.4,29.83,SW,231,4.0,-999.0,86,-99.99,,,0.01,0.0,cwc,2013-01-28 05:35:00,
2013-01-27 22:40:00,36.8,31.4,29.82,SW,230,0.0,-999.0,85,-99.99,,,0.01,0.0,cwc,2013-01-28 05:40:00,
2013-01-27 22:45:00,36.9,31.1,29.83,SW,230,0.0,-999.0,84,-99.99,,,0.01,0.0,cwc,2013-01-28 05:45:00,
2013-01-27 22:50:00,36.8,31.0,29.83,SW,231,1.0,-999.0,84,-99.99,,,0.01,0.0,cwc,2013-01-28 05:50:00,
2013-01-27 22:55:00,36.6,30.8,29.83,SW,231,2.0,-999.0,84,-99.99,,,0.01,0.0,cwc,2013-01-28 05:55:00,
2013-01-27 23:00:00,36.6,30.8,29.83,SW,231,0.0,-999.0,84,-99.99,,,0.01,0.0,cwc,2013-01-28 06:00:00,
2013-01-27 23:05:00,36.5,31.1,29.83,SW,232,1.0,-999.0,85,-99.99,,,0.01,0.0,cwc,2013-01-28 06:05:00,
2013-01-27 23:10:00,36.8,31.4,29.84,SW,232,3.0,-999.0,85,-99.99,,,0.01,0.0,cwc,2013-01-28 06:10:00,
2013-01-27 23:15:00,37.2,31.8,29.84,WSW,245,1.0,-999.0,85,-99.99,,,0.01,0.0,cwc,2013-01-28 06:15:00,
2013-01-27 23:20:00,37.5,31.7,29.83,WSW,245,2.0,-999.0,84,-99.99,,,0.01,0.0,cwc,2013-01-28 06:20:00,
2013-01-27 23:25:00,37.3,31.5,29.83,WSW,246,0.0,-999.0,84,-99.99,,,0.01,0.0,cwc,2013-01-28 06:25:00,
2013-01-27 23:30:00,37.2,31.4,29.83,WSW,246,0.0,-999.0,84,-99.99,,,0.01,0.0,cwc,2013-01-28 06:30:00,
2013-01-27 23:40:00,37.0,31.2,29.83,WSW,245,0.0,-999.0,84,-99.99,,,0.01,0.0,cwc,2013-01-28 06:40:00,
2013-01-27 23:45:00,36.8,31.4,29.83,WSW,246,0.0,-999.0,85,-99.99,,,0.01,0.0,cwc,2013-01-28 06:45:00,
2013-01-27 23:50:00,36.6,30.8,29.83,WSW,246,0.0,-999.0,84,-99.99,,,0.01,0.0,cwc,2013-01-28 06:50:00,
2013-01-27 23:55:00,36.4,31.0,29.83,WSW,246,0.0,-999.0,85,-99.99,,,0.01,0.0,cwc,2013-01-28 06:55:00,